Back to catalog

STARLINK-34628

AliveCommunicationsSSO
NORAD 64864·PAYLOAD·🇺🇸 United States

Launched Jul 19, 2025 from Vandenberg Space Force Base

Loading…

Next Passes (next 24 hours)

TLE

FreshSource: CelesTrak SupGP

Epoch: Sep 14, 2026, 14:30 UTC

1 64864C 25152Y   26257.60465278  .00002523  00000+0  78282-4 0  2572
2 64864  97.2842 108.2096 0002015  87.4857  62.0150 15.33446378    14

Track STARLINK-34628 in real time with AllMySat

Download on the App Store